Flag for U.S.A. Weather past 2 weeks in Jackson, Mississippi, U.S.A.

Now
89 °F

Partly sunny.


Feels Like: 93 °F
Forecast: 73 / 91 °F
Wind: 6 mph from Northwest

Location: Hawkins Field

Current Time: Jul 28, 2014 at 5:47:28 PM

Latest Report: Jul 28, 2014 at 4:53 PM


Visibility: 10 mi

Pressure: 29.98 "Hg

Humidity: 50%

Dew point: 68 °F

Location of JacksonLocation

Historic Weather in Jackson — Graph

°F

Jackson temperature yesterday

Maximum temperature yesterday: 92 °F (at 1:53 PM)
Minimum temperature yesterday: 77 °F (at 6:53 AM)
Average temperature yesterday: 84 °F

Past Weeks' High & Low Weather Summary

 TemperatureHumidityPressure
High93 °F (Jul 26, 1:53 PM)90% (Jul 15, 4:53 AM)30.07 "Hg (Jul 15, 4:53 AM)
Low63 °F (Jul 16, 6:53 AM)40% (Jul 16, 3:53 PM)29.88 "Hg (Jul 15, 4:53 PM)
Average79 °F71%29.99 "Hg
* Reported Jul 13 3:53 PM — Jul 28 3:53 PM, Jackson, Weather by CustomWeather, © 2014

Note: Actual official high and low records may vary slightly from our data, if they occured in-between our weather recording intervals... More about our weather records

Advertising

Jackson weather history for previous 24 hours

 ConditionsComfort  
Time TempWeatherWind HumidityBarometerVisibility
3:53 PM
Jul 28
90 °FSunny.12 mph45%29.99 "Hg10 mi
2:53 PM91 °FSunny.8 mph44%29.99 "Hg10 mi
1:53 PM89 °FPassing clouds.8 mph52%30.01 "Hg10 mi
12:53 PM90 °FSunny.10 mph54%30.02 "Hg10 mi
11:53 AM87 °FPassing clouds.6 mph63%30.03 "Hg10 mi
10:53 AM85 °FPartly sunny.9 mph68%30.04 "Hg10 mi
9:53 AM82 °FScattered clouds.8 mph74%30.04 "Hg10 mi
8:53 AM81 °FScattered clouds.8 mph79%30.04 "Hg10 mi
7:53 AM81 °FScattered clouds.10 mph79%30.04 "Hg10 mi
6:53 AM79 °FPartly cloudy.10 mph84%30.02 "Hg10 mi
5:53 AM78 °FClear.6 mph87%30.00 "Hg10 mi
4:53 AM79 °FClear.8 mph84%29.99 "Hg10 mi
3:53 AM80 °FClear.8 mph79%29.97 "Hg10 mi
2:53 AM80 °FClear.6 mph79%29.97 "Hg10 mi
1:53 AM81 °FClear.7 mph77%29.97 "Hg10 mi
12:53 AM81 °FClear.6 mph77%29.98 "Hg10 mi
11:53 PM
Jul 27
82 °FClear.6 mph74%29.99 "Hg10 mi
10:53 PM83 °FClear.5 mph72%30.00 "Hg10 mi
9:53 PM83 °FClear.3 mph74%30.00 "Hg10 mi
8:53 PM85 °FSunny.5 mph68%29.98 "Hg10 mi
7:53 PM86 °FSunny.5 mph65%29.98 "Hg10 mi
6:53 PM90 °FPassing clouds.9 mph56%29.99 "Hg10 mi
5:53 PM91 °FSunny.9 mph52%29.98 "Hg10 mi
Weather by CustomWeather, © 2014

See weather overviewHow to use our weather pages